Regional Weather Roundup
Issued by NWS

Home | Current Version | Previous Version | Text Only | Print | Product List | Glossary On
Versions: 1 2 3 4 5 6 7 8 9 10 11 12 13 14 15 16 17 18 19 20 21 22 23 24 25 26 27 28 29 30 31 32 33 34 35 36 37 38 39 40 41 42 43 44 45 46 47 48 49 50
000
ASUS43 KFSD 281510
RWRSD

WEATHER ROUNDUP FOR SOUTH DAKOTA
NATIONAL WEATHER SERVICE SIOUX FALLS SD
1000 AM CDT THU AUG 28 2014

NOTE: "FAIR" INDICATES FEW OR NO CLOUDS BELOW 12,000 FEET WITH NO
SIGNIFICANT WEATHER AND/OR OBSTRUCTIONS TO VISIBILITY.


SDZ001>005-009-010-012>017-281600-
NORTHWEST AND NORTH CENTRAL SOUTH DAKOTA

CITY           SKY/WX    TMP DP  RH WIND       PRES   REMARKS
BUFFALO          N/A     66  62  87 W3        29.92F
FAITH            N/A     65  64  97 CALM      29.97S
MOBRIDGE       LGT RAIN  66  66 100 SE8       29.92S
$$

SDZ012>016-024>037-041>051-057-063-072>074-281600-
SOUTHWEST AND SOUTH CENTRAL SOUTH DAKOTA

CITY           SKY/WX    TMP DP  RH WIND       PRES   REMARKS
RAPID CTY ARPT CLOUDY    65  60  84 CALM      30.01R
PIERRE         HVY RAIN  67  67 100 CALM      29.91R FOG
CUSTER         CLOUDY    60  52  74 N6        30.11S
ELLSWORTH AFB  CLOUDY    65  60  83 NW2       30.01R
PHILIP         PTSUNNY   68  65  90 N7        29.95S
PINE RIDGE     CLOUDY    66  64  93 N9        30.00R
WINNER         CLOUDY    69  67  93 E5        29.91S
$$

SDZ004>011-016>023-039-040-281600-
NORTHEAST SOUTH DAKOTA

CITY           SKY/WX    TMP DP  RH WIND       PRES   REMARKS
ABERDEEN       CLOUDY    67  66  97 SE6       29.95S
WATERTOWN      CLOUDY    66  64  93 SE6       29.97S
SISSETON         N/A     66  63  90 SE7       29.97F
$$

SDZ017-020-022-023-036>040-048>070-281600-
SOUTHEAST SOUTH DAKOTA

CITY           SKY/WX    TMP DP  RH WIND       PRES   REMARKS
SIOUX FALLS    LGT RAIN  68  66  93 SE10      29.95S
HURON          RAIN      67  66  97 E8        29.91F FOG
CHAMBERLAIN    CLOUDY    67  67  98 E6        29.91S
MITCHELL       LGT RAIN  69  69 100 SE12      29.92S
YANKTON        CLOUDY    68  66  94 SE9       29.93S
$$

ABBREVIATIONS USED IN REMARKS
   TC - TEMPERATURE IN CELSIUS
  WCI - WIND CHILL INDEX
   HX - HEAT INDEX
  VSB - VISIBILITY




USA.gov is the U.S. government's official web portal to all federal, state and local government web resources and services.